Date String (YYYY-MM-DD hh:mm:ss) UTC,Instrument flags,absolute air pressure of the measurement (hPa),sample flow rate (lpm),inlet stack bypass flow (lpm),air temperature of the measurement (°C),ambient temperature measured by the external sensor (°C),aerosol sample conditioner tube jacket temperature (°C),OPC LED temperature (°C),internal box temperature (°C),relative humidity of the measurement (%),span deviation,mass concentration of particles derived from Lorenz-Mie calculation of OPC scattering (μg/m³),mass concentration of particles derived from Lorenz-Mie calculation of OPC scattering (μg/m³),mass concentration of particles derived from Lorenz-Mie calculation of OPC scattering (μg/m³)
DateTimeUTC,F1_M11,P_M11,Q1_M11,Q2_M11,T1_M11,T2_M11,T3_M11,T4_M11,T5_M11,U1_M11,ZSPAN_M11,X0_M11,X2_M11,X1_M11
2024-03-21 13:00:00,SystemResetWarning,0825.8,5.00,000.00,020.3,019.5,000.0,028.9,022.1,18.0,0000.0,0013.10,0005.35,0004.67
2024-03-21 13:01:00,SystemResetWarning,0825.7,5.00,000.00,020.2,019.4,000.0,028.9,022.0,18.2,0000.7,0013.56,0005.43,0004.73
2024-03-21 13:02:00,SystemResetWarning,0825.7,5.00,000.00,020.2,019.4,000.0,028.9,022.0,18.3,0004.7,0013.40,0005.49,0004.79
2024-03-21 13:03:00,SystemResetWarning,0825.7,5.01,000.00,020.2,019.3,000.0,028.9,022.0,18.3,0002.3,0013.73,0005.54,0004.83
2024-03-21 13:04:00,SystemResetWarning,0825.7,5.01,000.00,020.2,019.3,000.0,028.9,022.0,18.3,0004.3,0014.64,0005.57,0004.87
2024-03-21 13:05:00,SystemResetWarning,0825.8,4.99,000.00,020.2,019.3,000.0,028.9,022.0,18.2,0004.4,0014.56,0005.60,0004.91
2024-03-21 13:06:00,SystemResetWarning,0825.8,4.98,000.00,020.2,019.3,000.0,028.9,021.9,18.1,0004.7,0014.17,0005.62,0004.94
2024-03-21 13:07:00,SystemResetWarning,0825.8,5.00,000.00,020.2,019.3,000.0,028.9,021.9,18.1,0004.7,0014.02,0005.66,0004.97
2024-03-21 13:08:00,SystemResetWarning,0825.8,5.00,000.00,020.2,019.3,000.0,028.8,021.9,18.3,0004.3,0013.79,0005.70,0005.02
2024-03-21 13:09:00,SystemResetWarning,0825.9,5.01,000.00,020.2,019.3,000.0,028.8,021.9,18.4,0004.3,0014.14,0005.78,0005.07
2024-03-21 13:10:00,SystemResetWarning,0825.9,5.01,000.00,020.1,019.3,000.0,028.8,021.9,18.6,0004.0,0013.29,0005.80,0005.11
2024-03-21 13:11:00,SystemResetWarning,0825.8,5.00,000.00,020.1,019.3,000.0,028.8,021.9,18.6,0004.5,0013.06,0005.88,0005.17
2024-03-21 13:12:00,SystemResetWarning,0825.8,4.98,000.00,020.1,019.3,000.0,028.8,021.9,18.6,0004.9,0013.33,0005.90,0005.18
2024-03-21 13:13:00,SystemResetWarning,0825.8,4.99,000.00,020.1,019.3,000.0,028.8,021.9,18.6,0004.5,0013.51,0005.91,0005.20
2024-03-21 13:14:00,SystemResetWarning,0825.8,5.00,000.00,020.1,019.3,000.0,028.8,021.9,18.6,0004.7,0012.49,0005.89,0005.24
2024-03-21 13:15:00,SystemResetWarning,0825.8,5.00,000.00,020.1,019.3,000.0,028.8,021.9,18.6,0004.8,0011.68,0005.93,0005.27
2024-03-21 13:16:00,SystemResetWarning,0825.8,5.01,000.00,020.1,019.3,000.0,028.8,021.9,18.7,0004.8,0011.73,0005.97,0005.30
2024-03-21 13:17:00,SystemResetWarning,0825.8,5.01,000.00,020.1,019.3,000.0,028.8,021.9,18.7,0004.5,0011.76,0006.03,0005.38
2024-03-21 13:18:00,SystemResetWarning,0825.8,5.00,000.00,020.1,019.3,000.0,028.7,021.9,18.6,0004.4,0012.06,0006.09,0005.43
2024-03-21 13:19:00,SystemResetWarning,0825.8,5.00,000.00,020.1,019.4,000.0,028.7,021.9,18.7,0004.3,0012.50,0006.13,0005.47
2024-03-21 13:20:00,SystemResetWarning,0825.8,5.01,000.00,020.1,019.3,000.0,028.7,021.9,18.8,0004.4,0012.38,0006.15,0005.51
2024-03-21 13:21:00,SystemResetWarning,0825.8,4.99,000.00,020.1,019.3,000.0,028.7,021.9,18.5,0004.6,0012.67,0006.17,0005.51
2024-03-21 13:22:00,SystemResetWarning,0825.8,4.99,000.00,020.1,019.3,000.0,028.7,021.9,18.2,0004.4,0012.58,0006.11,0005.45
2024-03-21 13:23:00,SystemResetWarning,0825.8,4.99,000.00,020.1,019.3,000.0,028.7,021.9,18.3,0003.6,0011.76,0006.05,0005.41
2024-03-21 13:24:00,SystemResetWarning,0825.8,4.99,000.00,020.1,019.3,000.0,028.7,021.9,18.3,0003.4,0011.39,0005.99,0005.37
2024-03-21 13:25:00,SystemResetWarning,0825.8,4.99,000.00,020.1,019.3,000.0,028.7,021.8,18.3,0003.4,0011.48,0005.92,0005.30
2024-03-21 13:26:00,SystemResetWarning,0825.8,5.00,000.00,020.0,019.3,000.0,028.7,021.8,18.3,0003.6,0011.56,0005.87,0005.25
2024-03-21 13:27:00,SystemResetWarning,0825.8,5.00,000.00,020.0,019.3,000.0,028.7,021.8,18.4,0003.6,0011.68,0005.86,0005.22
2024-03-21 13:28:00,SystemResetWarning,0825.9,5.01,000.00,020.0,019.3,000.0,028.7,021.8,18.5,0004.0,0011.87,0005.82,0005.17
2024-03-21 13:29:00,SystemResetWarning,0825.9,5.01,000.00,020.0,019.3,000.0,028.7,021.8,18.7,0004.3,0012.44,0005.84,0005.18
2024-03-21 13:30:00,SystemResetWarning,0825.9,5.00,000.00,020.0,019.3,000.0,028.7,021.8,18.7,0004.7,0012.71,0005.86,0005.19
2024-03-21 13:31:00,SystemResetWarning,0825.9,4.99,000.00,020.0,019.3,000.0,028.7,021.8,18.7,0004.4,0012.93,0005.84,0005.16
2024-03-21 13:32:00,SystemResetWarning,0825.9,4.99,000.00,020.0,019.3,000.0,028.6,021.8,18.6,0003.6,0013.45,0005.80,0005.15
2024-03-21 13:33:00,SystemResetWarning,0825.9,4.99,000.00,020.0,019.3,000.0,028.6,021.9,18.6,0003.8,0014.13,0005.81,0005.20
2024-03-21 13:34:00,SystemResetWarning,0825.8,5.01,000.00,020.0,019.3,000.0,028.6,021.8,18.4,0004.5,0013.99,0005.82,0005.21
2024-03-21 13:35:00,SystemResetWarning,0825.9,5.01,000.00,020.0,019.3,000.0,028.6,021.8,18.3,0004.8,0013.89,0005.85,0005.20
2024-03-21 13:36:00,SystemResetWarning,0825.9,4.99,000.00,020.0,019.3,000.0,028.6,021.8,18.3,0004.7,0014.46,0005.87,0005.20
2024-03-21 13:37:00,SystemResetWarning,0825.9,4.99,000.00,020.0,019.3,000.0,028.6,021.8,18.4,0004.6,0015.11,0005.86,0005.21
2024-03-21 13:38:00,SystemResetWarning,0825.9,5.00,000.00,020.0,019.4,000.0,028.6,021.8,18.3,0004.9,0015.09,0005.85,0005.20
2024-03-21 13:39:00,SystemResetWarning,0825.9,5.00,000.00,020.0,019.4,000.0,028.6,021.8,18.2,0004.5,0015.06,0005.83,0005.18
2024-03-21 13:40:00,SystemResetWarning,0825.9,5.01,000.00,020.0,019.4,000.0,028.6,021.8,18.1,0004.4,0014.43,0005.77,0005.12
2024-03-21 13:41:00,SystemResetWarning,0825.9,5.01,000.00,020.0,019.4,000.0,028.6,021.8,18.2,0004.7,0014.49,0005.70,0005.06
2024-03-21 13:42:00,SystemResetWarning,0825.9,5.00,000.00,020.0,019.4,000.0,028.6,021.8,18.3,0004.6,0014.20,0005.65,0005.02
2024-03-21 13:43:00,SystemResetWarning,0825.9,4.99,000.00,020.0,019.4,000.0,028.6,021.8,18.4,0004.3,0013.57,0005.63,0004.99
2024-03-21 13:44:00,SystemResetWarning,0825.9,5.00,000.00,020.0,019.4,000.0,028.6,021.8,18.5,0002.3,0012.67,0005.65,0004.97
2024-03-21 13:45:00,SystemResetWarning,0825.9,5.01,000.00,020.0,019.4,000.0,028.6,021.8,18.5,0000.0,0012.71,0005.68,0004.98
2024-03-21 13:46:00,SystemResetWarning,0825.9,5.01,000.00,020.0,019.4,000.0,028.6,021.8,18.4,0000.0,0012.59,0005.66,0005.00
2024-03-21 13:47:00,SystemResetWarning,0825.9,5.00,000.00,020.0,019.4,000.0,028.6,021.8,18.3,0000.0,0011.92,0005.66,0005.01
2024-03-21 13:48:00,SystemResetWarning,0825.9,4.99,000.00,020.0,019.4,000.0,028.6,021.8,18.4,0000.0,0011.56,0005.71,0005.02
2024-03-21 13:49:00,SystemResetWarning,0825.9,4.99,000.00,020.0,019.4,000.0,028.6,021.8,18.4,0000.0,0012.25,0005.75,0005.06
2024-03-21 13:50:00,SystemResetWarning,0825.9,5.00,000.00,020.0,019.4,000.0,028.6,021.8,18.5,0000.0,0012.15,0005.81,0005.11
2024-03-21 13:51:00,SystemResetWarning,0825.9,5.02,000.00,020.0,019.4,000.0,028.6,021.8,18.5,0000.0,0011.93,0005.85,0005.16
2024-03-21 13:52:00,SystemResetWarning,0825.9,5.00,000.00,020.0,019.4,000.0,028.6,021.8,18.5,0000.0,0011.32,0005.92,0005.20
2024-03-21 13:53:00,SystemResetWarning,0825.9,5.00,000.00,020.0,019.4,000.0,028.6,021.8,18.5,0002.6,0011.50,0005.97,0005.23
2024-03-21 13:54:00,SystemResetWarning,0825.9,5.00,000.00,020.0,019.4,000.0,028.6,021.8,18.5,0003.4,0012.16,0006.04,0005.27
2024-03-21 13:55:00,SystemResetWarning,0825.9,5.00,000.00,020.0,019.4,000.0,028.6,021.8,18.6,0002.6,0012.34,0006.11,0005.32
2024-03-21 13:56:00,SystemResetWarning,0825.9,5.00,000.00,020.0,019.4,000.0,028.6,021.8,18.6,0001.4,0012.83,0006.12,0005.35
2024-03-21 13:57:00,SystemResetWarning,0825.9,5.00,000.00,020.0,019.4,000.0,028.6,021.8,18.6,0001.4,0013.61,0006.17,0005.38
2024-03-21 13:58:00,SystemResetWarning,0825.9,5.00,000.00,020.0,019.4,000.0,028.6,021.8,18.6,0001.3,0013.75,0006.23,0005.42
2024-03-21 13:59:00,SystemResetWarning,0825.9,5.00,000.00,020.0,019.4,000.0,028.6,021.8,18.6,0001.0,0014.39,0006.25,0005.45
